Location: Dodgeville, WI 53533, USA
(43.0344°N, 90.0900°W)
Time: 07:15:37
(UTC-06:00)

Tiangong 2 - Visible Passes

Search period start: 18 December 2018 00:00
Search period end: 28 December 2018 00:00
Orbit: 383 x 391 km, 42.8° (Epoch: 18 December)

Date Brightness Start Highest point End Pass type
(mag) Time Alt. Az. Time Alt. Az. Time Alt. Az.
18 Dec 3.7 18:02:36 10° SSE 18:03:12 11° SSE 18:03:12 11° SSE visible
19 Dec 3.3 18:38:12 10° SW 18:39:36 20° SSW 18:39:36 20° SSW visible
20 Dec 3.1 17:40:04 10° SSW 17:42:21 18° SSE 17:43:39 15° ESE visible
20 Dec 4.5 19:15:39 10° WSW 19:15:55 12° WSW 19:15:55 12° WSW visible
21 Dec 1.7 18:17:01 10° SW 18:19:55 43° SSE 18:19:55 43° SSE visible
22 Dec 2.5 17:18:32 10° SW 17:21:20 29° SSE 17:23:54 12° E visible
22 Dec 3.5 18:54:45 10° W 18:56:09 24° WSW 18:56:09 24° WSW visible
23 Dec 1.2 17:55:59 10° WSW 17:59:08 63° SSE 18:00:06 38° E visible
24 Dec 1.9 16:57:19 10° SW 17:00:22 45° SSE 17:03:25 10° E visible
24 Dec 2.0 18:33:53 10° W 18:36:18 48° W 18:36:18 48° W visible
25 Dec 1.1 17:35:04 10° W 17:38:14 80° S 17:40:14 20° E visible
25 Dec 4.2 19:11:51 10° W 19:12:30 15° W 19:12:30 15° W visible
26 Dec 0.9 18:13:00 10° W 18:16:11 86° S 18:16:28 71° ESE visible
27 Dec 1.1 17:14:09 10° W 17:17:19 88° SSW 17:20:28 10° E visible
27 Dec 3.1 18:50:57 10° W 18:52:45 29° W 18:52:45 29° W visible
